Vorticity
4 5 4 6 9 9 11 8 6 6 12 10 4 5 8 6 8 5 6 -2 2 20 14 7 9 5 5 -2 11 10 8 12 22 2 -1 12 11 12 17 16 8 10 11 4 5 9 13
5 5 4 5 7 8 11 9 9 7 11 14 6 5 7 8 9 9 11 16 7 6 37 10 9 11 7 7 17 15 3 17 13 11 3 3 9 5 16 12 15 8 4 11 18 4 13
5 5 5 4 6 7 10 11 10 8 10 18 8 6 6 5 8 11 8 15 5 11 29 17 9 6 13 12 20 8 9 17 10 6 35 -15 8 9 22 -1 12 12 3 9 12 7 11
5 5 5 4 3 3 4 8 10 10 9 16 13 7 5 7 7 10 10 17 24 13 13 23 19 23 2 13 11 16 7 7 16 20 -17 48 13 10 14 -1 10 6 11 4 11 14 8
5 5 5 5 5 2 1 3 5 11 10 13 16 9 6 6 9 9 11 5 6 12 15 23 20 15 26 13 4 16 10 11 8 8 4 36 10 6 10 11 -0 8 24 6 5 11 7
5 5 5 5 6 5 5 5 3 4 10 12 19 12 8 7 5 7 9 2 2 4 37 -23 29 28 13 25 4 6 10 1 9 12 10 3 18 -0 13 20 -0 6 11 16 12 12 9
5 6 6 5 5 6 6 5 4 4 5 10 15 17 12 6 -3 -3 1 4 5 -1 -1 4 -6 -2 39 50 22 12 11 20 14 19 -7 7 12 -3 14 4 14 23 12 5 16 5 10
7 5 5 5 5 6 6 4 5 6 7 8 14 19 14 12 -0 -1 -0 1 -1 -2 6 3 -4 2 -8 25 26 26 30 12 21 5 8 6 22 -9 2 21 7 10 10 13 9 12 -2
7 7 5 5 5 6 6 6 5 6 9 4 11 18 20 14 14 6 -2 -4 -6 9 5 10 5 -2 15 -7 20 36 11 7 6 8 7 6 20 -4 -7 21 12 5 8 1 4 7 3
6 7 6 5 5 5 5 5 6 7 7 10 6 12 21 9 14 11 14 12 15 17 0 -8 18 -1 12 12 2 7 26 4 9 17 17 14 6 -3 -1 -5 30 3 13 7 14 10 3
6 6 6 6 5 5 5 5 5 6 6 7 6 10 13 22 16 14 12 12 11 15 -1 6 5 9 11 8 12 17 4 8 -2 8 29 30 16 7 -0 -3 1 12 11 6 14 -1 3
6 7 6 6 5 5 5 5 5 6 6 6 10 8 11 12 17 14 16 9 16 11 3 5 9 7 9 14 15 16 3 3 31 28 21 3 21 16 6 -2 3 13 14 11 10 10 4
8 6 6 5 5 6 6 6 6 6 6 5 7 6 9 9 12 15 14 18 7 18 3 -2 6 5 7 6 11 15 4 -3 10 -8 3 22 26 15 21 21 12 12 -9 3 2 7 2
7 7 7 6 6 6 6 6 6 6 6 6 7 9 9 11 14 17 13 7 17 12 20 6 6 3 5 13 9 20 13 14 -3 14 -9 8 -6 -10 14 7 16 13 -5 13 11 9 9
8 7 7 6 5 6 7 6 6 6 7 6 7 10 10 9 9 12 20 11 13 4 9 5 4 5 9 6 8 5 10 13 21 -0 14 11 16 16 7 5 -2 19 0 -5 8 10 5
8 8 6 6 5 6 7 7 6 6 7 7 7 11 9 12 14 14 17 20 15 8 7 9 13 11 9 10 5 5 15 9 -4 5 12 10 13 7 6 6 5 -3 11 7 6 5 7
7 7 5 4 4 6 7 7 6 6 6 7 8 12 6 8 13 13 16 16 8 8 10 10 9 10 10 9 7 8 13 10 5 4 14 0 19 18 6 5 10 9 5 4 7 2 9
6 5 4 5 6 7 6 7 6 7 7 7 8 17 4 6 7 9 10 14 13 11 8 8 7 9 9 13 8 10 13 13 6 5 8 10 7 13 8 1 12 8 5 8 3 15 7
5 7 6 6 6 7 7 7 7 7 7 7 7 15 3 8 9 9 9 9 10 10 12 11 10 10 9 8 9 11 12 13 8 6 9 9 6 7 13 16 10 9 11 4 4 -3 10
4 4 4 6 7 6 6 5 7 8 8 6 10 11 5 3 8 7 8 6 9 9 9 11 12 10 9 10 8 8 10 9 9 8 7 7 10 2 2 5 -0 7 14 18 10 -1 -5
5 4 5 6 6 6 8 9 8 7 8 8 6 4 7 -4 9 7 8 6 8 9 8 9 3 11 10 7 14 11 9 8 10 10 8 8 7 10 6 6 6 6 6 5 0 6 -3
4 5 3 5 2 0 6 7 8 8 8 7 6 4 6 9 4 6 8 6 7 6 8 6 7 7 7 9 9 10 6 6 12 10 8 9 7 4 16 20 11 8 10 9 6 6 4
4 5 1 7 9 9 12 14 12 9 8 8 6 6 6 5 5 7 9 3 4 6 12 2 6 7 6 8 6 8 8 8 4 5 5 11 8 4 19 9 4 36 36 36 43 34 27
8 5 6 8 7 11 15 16 13 12 11 9 9 9 8 6 4 5 7 7 7 6 6 7 7 6 6 7 7 6 6 8 8 8 8 1 4 15 6 19 17 13 2 4 3 5 19
20 8 7 5 8 14 13 15 15 14 13 12 11 9 7 8 6 6 6 7 9 8 9 8 9 6 7 8 11 25 14 29 23 22 20 12 8 3 4 8 -10 30 27 19 15 4 24
15 29 14 8 12 4 14 6 11 12 14 14 12 12 10 9 13 13 7 2 2 4 6 9 11 3 8 10 12 12 6 -7 19 12 9 19 16 -7 17 7 2 0 3 -2 0 24 -5
-3 6 -2 11 14 4 9 3 3 5 6 7 9 10 12 10 12 13 13 11 8 7 4 7 8 13 10 11 12 16 20 -4 10 8 13 18 21 7 4 -6 14 8 9 13 29 -4 6
8 8 4 14 -21 9 19 12 6 2 1 3 5 5 6 9 9 10 12 12 13 12 11 8 12 16 21 24 18 15 17 6 13 1 2 5 12 16 35 6 20 21 17 12 -2 -10 -11
5 -1 -13 2 13 6 14 -0 11 8 7 5 7 6 5 6 -8 -9 -4 -2 -1 -1 -2 -0 -1 -2 -15 -6 -12 11 6 -1 8 3 10 8 8 -11 -10 11 -10 8 4 -1 -0 -4 5
Height
3149 3147 3144 3140 3136 3132 3128 3124 3120 3116 3112 3108 3103 3099 3094 3088 3083 3079 3074 3070 3066 3060 3057 3054 3053 3052 3053 3053 3053 3053 3055 3057 3059 3064 3067 3071 3077 3081 3086 3092 3098 3105 3110 3116 3119 3125 3130
3150 3148 3144 3141 3137 3133 3129 3125 3121 3117 3113 3108 3104 3100 3095 3090 3086 3081 3075 3071 3068 3062 3056 3056 3056 3055 3055 3055 3053 3055 3057 3058 3061 3065 3068 3072 3076 3082 3087 3093 3100 3106 3111 3115 3118 3125 3129
3152 3149 3146 3142 3139 3135 3131 3127 3122 3118 3114 3109 3105 3102 3097 3093 3088 3084 3078 3073 3070 3065 3059 3058 3058 3057 3056 3056 3055 3056 3058 3059 3062 3067 3070 3074 3078 3083 3088 3095 3101 3106 3111 3115 3118 3123 3127
3152 3150 3147 3144 3141 3137 3132 3129 3124 3119 3115 3110 3106 3103 3099 3095 3091 3087 3082 3076 3071 3067 3063 3062 3061 3060 3057 3056 3057 3059 3060 3061 3063 3067 3072 3073 3078 3085 3091 3096 3101 3106 3111 3113 3116 3121 3126
3154 3151 3148 3145 3142 3138 3134 3130 3125 3121 3116 3111 3107 3104 3101 3097 3094 3089 3085 3080 3077 3074 3068 3067 3066 3063 3060 3059 3060 3060 3062 3063 3066 3070 3074 3075 3081 3087 3093 3097 3102 3105 3107 3110 3115 3120 3125
3155 3152 3150 3146 3143 3139 3135 3131 3126 3122 3117 3112 3108 3105 3102 3099 3095 3092 3088 3084 3082 3079 3075 3072 3069 3067 3064 3062 3061 3063 3064 3066 3069 3071 3074 3078 3083 3089 3094 3098 3100 3104 3108 3110 3113 3120 3125
3156 3153 3150 3147 3144 3141 3137 3132 3128 3123 3118 3113 3109 3106 3102 3100 3097 3094 3092 3090 3089 3085 3080 3078 3076 3071 3067 3064 3064 3065 3068 3070 3072 3074 3075 3081 3087 3091 3095 3099 3104 3107 3110 3112 3115 3121 3126
3157 3154 3151 3148 3145 3142 3138 3135 3130 3125 3120 3115 3111 3107 3103 3101 3098 3096 3095 3092 3089 3090 3087 3083 3080 3078 3075 3071 3069 3068 3069 3072 3075 3078 3081 3087 3089 3093 3097 3101 3105 3108 3111 3113 3117 3122 3127
3157 3155 3152 3149 3146 3143 3139 3136 3132 3127 3122 3117 3112 3108 3104 3101 3098 3097 3096 3095 3092 3092 3091 3089 3087 3084 3082 3079 3076 3075 3077 3078 3081 3083 3086 3089 3093 3096 3099 3102 3106 3109 3112 3114 3117 3121 3126
3156 3154 3152 3149 3147 3144 3140 3136 3132 3128 3124 3119 3114 3109 3105 3101 3100 3097 3096 3095 3094 3092 3093 3095 3090 3089 3088 3086 3086 3084 3083 3084 3086 3088 3090 3094 3096 3098 3100 3104 3107 3110 3113 3115 3117 3122 3125
3155 3154 3152 3149 3147 3145 3141 3138 3133 3129 3125 3120 3116 3111 3107 3102 3099 3097 3097 3094 3093 3093 3096 3098 3095 3093 3091 3091 3091 3090 3090 3089 3091 3091 3093 3095 3098 3101 3103 3106 3109 3112 3114 3117 3118 3121 3124
3154 3153 3151 3149 3147 3144 3142 3138 3135 3131 3126 3122 3117 3113 3108 3105 3101 3099 3096 3094 3094 3096 3098 3099 3097 3097 3096 3093 3092 3093 3094 3095 3094 3093 3095 3097 3098 3102 3105 3107 3111 3114 3116 3118 3120 3122 3124
3153 3151 3150 3148 3146 3144 3141 3138 3135 3131 3127 3123 3119 3115 3110 3107 3104 3100 3097 3095 3096 3094 3101 3101 3098 3097 3097 3097 3096 3096 3097 3097 3098 3099 3098 3099 3100 3102 3106 3110 3113 3115 3117 3120 3125 3126 3125
3151 3150 3149 3147 3145 3143 3141 3138 3135 3132 3128 3124 3120 3116 3112 3108 3105 3102 3099 3098 3096 3099 3099 3100 3099 3098 3098 3098 3098 3098 3099 3099 3100 3101 3101 3102 3107 3106 3108 3111 3113 3115 3117 3117 3125 3127 3123
3150 3148 3147 3145 3144 3142 3140 3137 3135 3132 3129 3125 3122 3118 3114 3110 3107 3104 3103 3100 3102 3102 3102 3102 3101 3100 3099 3098 3099 3099 3101 3101 3102 3103 3104 3104 3106 3107 3110 3111 3114 3115 3117 3118 3118 3121 3122
3147 3146 3144 3143 3142 3140 3139 3136 3134 3131 3129 3126 3122 3119 3116 3113 3109 3107 3106 3104 3104 3104 3104 3103 3102 3102 3101 3100 3100 3099 3100 3104 3105 3105 3105 3106 3108 3109 3111 3112 3114 3114 3116 3118 3118 3122 3125
3143 3143 3142 3141 3140 3139 3138 3136 3133 3131 3128 3126 3123 3120 3117 3114 3112 3110 3107 3107 3106 3106 3106 3105 3104 3104 3104 3103 3102 3101 3103 3105 3106 3107 3106 3107 3108 3112 3112 3113 3113 3115 3115 3116 3117 3118 3119
3139 3140 3139 3139 3138 3137 3136 3135 3132 3130 3128 3126 3123 3121 3118 3116 3116 3111 3109 3108 3108 3108 3107 3106 3106 3105 3104 3104 3104 3104 3104 3104 3105 3106 3107 3108 3109 3110 3112 3113 3113 3114 3115 3116 3116 3118 3118
3134 3136 3135 3135 3134 3134 3133 3133 3131 3128 3127 3125 3123 3121 3119 3117 3115 3113 3111 3110 3109 3108 3108 3107 3106 3107 3106 3106 3106 3105 3105 3105 3105 3105 3106 3107 3108 3110 3112 3114 3112 3112 3113 3115 3116 3117 3116
3130 3130 3131 3131 3131 3130 3129 3128 3128 3127 3125 3124 3123 3122 3120 3117 3116 3115 3113 3112 3111 3109 3108 3108 3108 3107 3107 3106 3106 3107 3106 3106 3106 3106 3106 3106 3106 3106 3108 3109 3110 3110 3111 3111 3112 3114 3112
3125 3125 3125 3125 3126 3126 3125 3125 3124 3124 3123 3123 3121 3120 3119 3118 3116 3115 3114 3113 3111 3111 3110 3109 3108 3108 3109 3107 3106 3106 3106 3107 3107 3107 3107 3107 3107 3107 3107 3106 3106 3106 3107 3107 3106 3107 3106
3119 3119 3119 3120 3120 3120 3120 3120 3120 3120 3119 3119 3119 3118 3117 3116 3115 3114 3113 3112 3112 3111 3111 3110 3109 3108 3107 3107 3108 3107 3106 3105 3106 3106 3105 3104 3105 3105 3104 3103 3103 3102 3102 3101 3100 3099 3098
3112 3113 3113 3113 3114 3114 3114 3114 3114 3114 3115 3115 3115 3114 3114 3114 3113 3113 3112 3111 3111 3111 3111 3110 3110 3109 3108 3107 3105 3105 3105 3105 3104 3104 3103 3103 3103 3102 3099 3099 3098 3096 3093 3093 3093 3095 3095
3105 3106 3107 3107 3107 3108 3108 3108 3109 3109 3109 3110 3110 3111 3111 3110 3111 3110 3109 3109 3108 3108 3109 3109 3108 3107 3108 3106 3105 3104 3102 3101 3100 3100 3101 3101 3101 3101 3098 3098 3097 3091 3090 3090 3090 3091 3091
3096 3098 3099 3101 3102 3102 3103 3102 3103 3104 3104 3105 3105 3106 3106 3105 3106 3107 3106 3106 3105 3105 3105 3104 3105 3105 3104 3104 3103 3102 3100 3099 3097 3096 3096 3097 3099 3099 3097 3094 3090 3087 3086 3087 3087 3089 3087
3089 3090 3092 3093 3095 3096 3098 3099 3098 3098 3099 3100 3101 3101 3102 3102 3102 3102 3102 3102 3102 3101 3101 3101 3100 3100 3100 3100 3100 3099 3099 3097 3096 3094 3094 3094 3095 3098 3095 3094 3091 3086 3086 3085 3084 3085 3084
3081 3084 3085 3087 3088 3090 3092 3094 3094 3095 3094 3095 3095 3096 3097 3097 3098 3098 3097 3098 3098 3098 3097 3097 3096 3096 3096 3095 3095 3095 3094 3094 3094 3092 3092 3091 3090 3091 3092 3091 3086 3083 3082 3083 3085 3086 3080
3073 3074 3076 3079 3081 3084 3085 3087 3088 3089 3089 3090 3090 3089 3090 3090 3091 3091 3092 3092 3092 3093 3093 3093 3093 3092 3091 3092 3092 3091 3089 3087 3086 3086 3086 3090 3089 3086 3087 3089 3085 3080 3080 3082 3080 3078 3077
3063 3066 3068 3070 3072 3075 3077 3080 3080 3081 3082 3083 3085 3084 3084 3085 3086 3085 3086 3086 3087 3087 3087 3086 3088 3087 3088 3088 3088 3086 3086 3086 3084 3083 3083 3083 3084 3083 3083 3080 3078 3077 3077 3076 3075 3074 3072